When you browse on this site, cookies collect data to enhance your experience and personalize the content and advertising you see.
Visit our Privacy Policy to learn more. By continuing to use the site, you agree to this use of cookies and data.
  • In Belgium
  • List of Countries
  • For 7 days
  • Water Temperature
  • Weather Map
  • Weather Widgets
  • user-avatar
    Login

    Hourly Weather Sydney

    Today, 14 December, Saturday

    Time Temperature Precipitation Wind Pressure Humidity
    00:00 +20°C° 0 mm 2 mps 759 mmHg 76%
    01:00 +19°C° 0 mm 2 mps 759 mmHg 79%
    02:00 +19°C° 0.1 mm 2 mps 758 mmHg 82%
    03:00 +18°C° 0.1 mm 2 mps 758 mmHg 85%
    04:00 +18°C° 0 mm 1 mps 757 mmHg 88%
    05:00 +20°C° 0 mm 1 mps 758 mmHg 81%
    06:00 +21°C° 0 mm 1 mps 758 mmHg 74%
    07:00 +23°C° 0 mm 1 mps 758 mmHg 68%
    08:00 +25°C° 0 mm 2 mps 758 mmHg 59%
    09:00 +28°C° 0 mm 2 mps 757 mmHg 50%
    10:00 +30°C° 0 mm 2 mps 757 mmHg 41%
    11:00 +31°C° 0 mm 3 mps 756 mmHg 38%
    12:00 +33°C° 0 mm 4 mps 756 mmHg 35%
    13:00 +34°C° 0 mm 5 mps 755 mmHg 31%
    14:00 +32°C° 0 mm 6 mps 755 mmHg 40%
    15:00 +30°C° 0 mm 6 mps 755 mmHg 50%
    16:00 +28°C° 0 mm 4 mps 755 mmHg 58%
    17:00 +26°C° 0 mm 4 mps 756 mmHg 65%
    18:00 +25°C° 0 mm 4 mps 756 mmHg 72%
    19:00 +23°C° 0 mm 4 mps 757 mmHg 79%
    20:00 +22°C° 0.3 mm 4 mps 758 mmHg 80%
    21:00 +22°C° 0.3 mm 5 mps 758 mmHg 81%
    22:00 +21°C° 0.3 mm 6 mps 759 mmHg 82%
    23:00 +21°C° 0.1 mm 5 mps 759 mmHg 83%

    Tomorrow, 15 December, Sunday

    Time Temperature Precipitation Wind Pressure Humidity
    00:00 +20°C° 0.1 mm 5 mps 758 mmHg 83%
    01:00 +20°C° 0.1 mm 4 mps 758 mmHg 84%
    02:00 +20°C° 0 mm 4 mps 758 mmHg 85%
    03:00 +20°C° 0 mm 3 mps 758 mmHg 85%
    04:00 +20°C° 0 mm 3 mps 757 mmHg 86%
    05:00 +20°C° 0 mm 2 mps 758 mmHg 83%
    06:00 +21°C° 0 mm 2 mps 758 mmHg 81%
    07:00 +22°C° 0 mm 1 mps 758 mmHg 78%
    08:00 +24°C° 0 mm 2 mps 757 mmHg 69%
    09:00 +26°C° 0 mm 2 mps 757 mmHg 59%
    10:00 +28°C° 0 mm 3 mps 756 mmHg 50%
    11:00 +30°C° 0 mm 4 mps 756 mmHg 43%
    12:00 +33°C° 0 mm 4 mps 755 mmHg 36%
    13:00 +35°C° 0 mm 5 mps 754 mmHg 29%
    14:00 +35°C° 0 mm 5 mps 754 mmHg 33%
    15:00 +34°C° 0 mm 6 mps 753 mmHg 36%
    16:00 +33°C° 0 mm 6 mps 753 mmHg 39%
    17:00 +30°C° 0 mm 6 mps 753 mmHg 48%
    18:00 +28°C° 0 mm 5 mps 753 mmHg 56%
    19:00 +27°C° 0 mm 5 mps 754 mmHg 65%
    20:00 +25°C° 0 mm 4 mps 754 mmHg 69%
    21:00 +24°C° 0 mm 3 mps 754 mmHg 73%
    22:00 +23°C° 0 mm 2 mps 754 mmHg 78%
    23:00 +23°C° 0 mm 2 mps 754 mmHg 71%

    Day after tomorrow, 16 December, Monday

    Time Temperature Precipitation Wind Pressure Humidity
    00:00 +23°C° 0 mm 2 mps 754 mmHg 65%
    01:00 +23°C° 0 mm 2 mps 753 mmHg 58%
    02:00 +22°C° 0 mm 3 mps 753 mmHg 49%
    03:00 +21°C° 0 mm 4 mps 753 mmHg 39%
    04:00 +21°C° 0 mm 6 mps 754 mmHg 30%
    05:00 +22°C° 0 mm 7 mps 754 mmHg 41%
    06:00 +23°C° 0 mm 8 mps 755 mmHg 53%
    07:00 +23°C° 0 mm 9 mps 756 mmHg 65%
    08:00 +23°C° 0 mm 9 mps 757 mmHg 61%
    09:00 +24°C° 0 mm 8 mps 757 mmHg 58%
    10:00 +24°C° 0 mm 8 mps 758 mmHg 55%
    11:00 +24°C° 0 mm 8 mps 758 mmHg 52%
    12:00 +26°C° 0 mm 7 mps 758 mmHg 49%
    13:00 +26°C° 0 mm 7 mps 758 mmHg 46%
    14:00 +26°C° 0 mm 7 mps 758 mmHg 48%
    15:00 +24°C° 0 mm 7 mps 759 mmHg 50%
    16:00 +24°C° 0 mm 6 mps 759 mmHg 52%
    17:00 +23°C° 0 mm 6 mps 760 mmHg 57%
    18:00 +22°C° 0 mm 5 mps 761 mmHg 62%
    19:00 +20°C° 0 mm 4 mps 762 mmHg 67%
    20:00 +20°C° 0 mm 4 mps 762 mmHg 69%
    21:00 +20°C° 0 mm 3 mps 763 mmHg 70%
    22:00 +20°C° 0 mm 3 mps 763 mmHg 72%
    23:00 +19°C° 0 mm 3 mps 763 mmHg 73%

    17 December, Tuesday

    Time Temperature Precipitation Wind Pressure Humidity
    00:00 +19°C° 0 mm 2 mps 763 mmHg 74%
    01:00 +18°C° 0 mm 2 mps 763 mmHg 74%
    02:00 +18°C° 0 mm 2 mps 763 mmHg 76%
    03:00 +18°C° 0 mm 2 mps 763 mmHg 78%
    04:00 +17°C° 0 mm 2 mps 763 mmHg 79%
    05:00 +19°C° 0 mm 2 mps 763 mmHg 71%
    06:00 +20°C° 0 mm 2 mps 763 mmHg 64%
    07:00 +23°C° 0 mm 2 mps 764 mmHg 56%
    08:00 +24°C° 0 mm 2 mps 764 mmHg 51%
    09:00 +25°C° 0 mm 3 mps 764 mmHg 47%
    10:00 +26°C° 0 mm 3 mps 764 mmHg 42%
    11:00 +27°C° 0 mm 4 mps 764 mmHg 41%
    12:00 +27°C° 0 mm 4 mps 763 mmHg 40%
    13:00 +28°C° 0 mm 4 mps 763 mmHg 39%
    14:00 +27°C° 0 mm 4 mps 763 mmHg 41%
    15:00 +26°C° 0 mm 4 mps 763 mmHg 42%
    16:00 +26°C° 0 mm 4 mps 762 mmHg 44%
    17:00 +23°C° 0 mm 4 mps 763 mmHg 50%
    18:00 +22°C° 0 mm 4 mps 764 mmHg 57%
    19:00 +21°C° 0 mm 3 mps 764 mmHg 63%
    20:00 +20°C° 0 mm 3 mps 765 mmHg 66%
    21:00 +19°C° 0 mm 3 mps 765 mmHg 69%
    22:00 +18°C° 0 mm 3 mps 765 mmHg 72%
    23:00 +18°C° 0 mm 3 mps 765 mmHg 75%

    18 December, Wednesday

    Time Temperature Precipitation Wind Pressure Humidity
    00:00 +17°C° 0 mm 3 mps 764 mmHg 77%
    01:00 +17°C° 0 mm 2 mps 764 mmHg 80%
    02:00 +16°C° 0 mm 2 mps 764 mmHg 81%
    03:00 +16°C° 0 mm 2 mps 763 mmHg 83%
    04:00 +16°C° 0 mm 2 mps 763 mmHg 84%
    05:00 +17°C° 0 mm 2 mps 763 mmHg 77%
    06:00 +19°C° 0 mm 3 mps 763 mmHg 70%
    07:00 +20°C° 0 mm 3 mps 764 mmHg 63%
    08:00 +24°C° 0 mm 3 mps 763 mmHg 52%
    09:00 +27°C° 0 mm 4 mps 763 mmHg 41%
    10:00 +30°C° 0 mm 5 mps 762 mmHg 31%
    11:00 +32°C° 0 mm 6 mps 761 mmHg 29%
    12:00 +34°C° 0 mm 7 mps 761 mmHg 26%
    13:00 +36°C° 0 mm 7 mps 760 mmHg 24%
    14:00 +35°C° 0 mm 8 mps 759 mmHg 28%
    15:00 +34°C° 0 mm 8 mps 758 mmHg 32%
    16:00 +33°C° 0 mm 9 mps 758 mmHg 36%
    17:00 +31°C° 0 mm 8 mps 758 mmHg 43%
    18:00 +28°C° 0 mm 8 mps 758 mmHg 49%
    19:00 +26°C° 0 mm 8 mps 758 mmHg 56%
    20:00 +24°C° 0 mm 7 mps 758 mmHg 60%
    21:00 +23°C° 0 mm 6 mps 759 mmHg 64%
    22:00 +22°C° 0 mm 5 mps 759 mmHg 69%
    23:00 +22°C° 0 mm 4 mps 758 mmHg 68%

    19 December, Thursday

    Time Temperature Precipitation Wind Pressure Humidity
    00:00 +22°C° 0 mm 4 mps 758 mmHg 67%
    01:00 +21°C° 0 mm 4 mps 757 mmHg 67%
    02:00 +21°C° 0 mm 3 mps 757 mmHg 62%
    03:00 +21°C° 0 mm 3 mps 756 mmHg 58%
    04:00 +21°C° 0 mm 3 mps 756 mmHg 53%
    05:00 +25°C° 0 mm 3 mps 756 mmHg 44%
    06:00 +28°C° 0 mm 3 mps 756 mmHg 35%
    07:00 +30°C° 0 mm 3 mps 756 mmHg 27%
    08:00 +36°C° 0 mm 4 mps 756 mmHg 22%
    09:00 +41°C° 0 mm 4 mps 756 mmHg 17%
    10:00 +46°C° 0 mm 5 mps 756 mmHg 13%
    11:00 +43°C° 0 mm 7 mps 756 mmHg 20%
    12:00 +39°C° 0 mm 9 mps 756 mmHg 28%
    13:00 +34°C° 0 mm 11 mps 756 mmHg 36%
    14:00 +33°C° 0 mm 10 mps 756 mmHg 39%
    15:00 +31°C° 0 mm 9 mps 757 mmHg 42%
    16:00 +28°C° 0 mm 9 mps 757 mmHg 46%
    17:00 +26°C° 0 mm 8 mps 758 mmHg 53%
    18:00 +24°C° 0 mm 8 mps 760 mmHg 60%
    19:00 +23°C° 0 mm 7 mps 761 mmHg 68%
    20:00 +22°C° 0 mm 7 mps 762 mmHg 72%
    21:00 +21°C° 0 mm 6 mps 763 mmHg 76%
    22:00 +20°C° 0 mm 6 mps 763 mmHg 80%
    23:00 +21°C° 0 mm 6 mps 763 mmHg 77%
    Show more